This is the latest recevied weather packets stored in our database for station/object W4OTS. If no packets are shown the sender has not sent any weather packets the latest 10 day(s).
| Time | Temp. | Humidity | Pressure | Rain* | Wind** | Luminosity | Snow |
|---|---|---|---|---|---|---|---|
| 1778022169 | 23.89° C | 45% | 1015.1 hPa | 0 mm | - | 24 W/m² | - |
| 1778021866 | 23.89° C | 45% | 1015.5 hPa | 0 mm | - | 27 W/m² | - |
| 1778021563 | 23.89° C | 45% | 1015.4 hPa | 0 mm | - | 31 W/m² | - |
| 1778021258 | 23.89° C | 44% | 1015.4 hPa | 0 mm | - | 28 W/m² | - |
| 1778020956 | 23.89° C | 46% | 1015.4 hPa | 0 mm | - | 31 W/m² | - |
| 1778020653 | 23.89° C | 45% | 1015.5 hPa | 0 mm | - | 34 W/m² | - |
| 1778020350 | 23.89° C | 44% | 1015.6 hPa | 0 mm | - | 34 W/m² | - |
| 1778020046 | 23.89° C | 44% | 1015.7 hPa | 0 mm | - | 40 W/m² | - |
| 1778019742 | 23.89° C | 43% | 1015.5 hPa | 0 mm | - | 60 W/m² | - |
| 1778019439 | 23.89° C | 43% | 1015.3 hPa | 0 mm | - | 59 W/m² | - |
| 1778019135 | 23.89° C | 44% | 1015.3 hPa | 0 mm | - | 48 W/m² | - |
| 1778018833 | 23.89° C | 44% | 1015.3 hPa | 0 mm | - | 51 W/m² | - |
| 1778018530 | 23.89° C | 45% | 1015.4 hPa | 0 mm | - | 49 W/m² | - |
| 1778018228 | 23.89° C | 44% | 1015.4 hPa | 0 mm | - | 47 W/m² | - |
| 1778017926 | 23.89° C | 45% | 1015.5 hPa | 0 mm | - | 75 W/m² | - |
| 1778017623 | 23.89° C | 44% | 1015.2 hPa | 0 mm | - | 62 W/m² | - |
| 1778017321 | 23.89° C | 43% | 1015.3 hPa | 0 mm | - | 54 W/m² | - |
| 1778017018 | 24.44° C | 43% | 1015.6 hPa | 0 mm | - | 62 W/m² | - |
| 1778016715 | 23.89° C | 42% | 1015.4 hPa | 0 mm | - | 50 W/m² | - |
| 1778016410 | 23.89° C | 43% | 1015.6 hPa | 0 mm | - | 38 W/m² | - |
| 1778016108 | 23.89° C | 43% | 1015.8 hPa | 0 mm | - | 62 W/m² | - |
| 1778015805 | 23.89° C | 44% | 1015.8 hPa | 0 mm | - | 67 W/m² | - |
| 1778015502 | 23.89° C | 44% | 1015.8 hPa | 0 mm | - | 42 W/m² | - |
| 1778015199 | 23.89° C | 43% | 1016.1 hPa | 0 mm | - | 49 W/m² | - |
| 1778014895 | 24.44° C | 43% | 1015.8 hPa | 0 mm | - | 55 W/m² | - |
* Rain latest hour (hover to see other rain measurements)
** Current wind speed in m/s (hover to see current wind gust speed)